THORAD AGENA D DEB, 4868

Orbit data source: Space-Track

THORAD AGENA D DEB, 4868 is space debris in SSO originally from a launch on Wed, 08 Apr 1970 UTC launched from the Air Force Western Test Range (AFWTR). Debris objects in space refer to the collection of defunct objects orbiting the Earth. Examples of debris include non-operational satellites, rocket bodies, and fragments generated from explosions, collisions, or faulty payload assembly.

Loading next visibility...
Identifier
4868, 1970-025EY
Orbit
SSO
Country
Flag of USUS
Related business
Manufacturer
Unknown
Mission
Spacecraft
Bus & Motor
Unknown
Mass
Unknown
Launch date (UTC)
1970-04-08 (56 years ago)
Launch vehicle
Unknown
Launch site
Air Force Western Test Range (AFWTR)
Object type
Payload
Rocket body
Debris
Shape & HBR
Unknown shape, 0.1 m
Radar Cross Section
Small (<0.1 m²)

Expand to show TLE details & history
Last TLE update: 6 hours ago

TLE from 6 hours ago
0 THORAD AGENA D DEB
1  4868U 70025EY  26037.10671910  .00001552  00000-0  10519-2 0  9994
2  4868  99.7289 100.8030 0053439  55.0675 305.5492 14.01203829816852
Epoch: 2026-02-06T02:33Z
TLE epoch observation values (Epoch: 2026-02-06T02:33:40.530Z)
Latitude
0.00003°
Longitude
-73.86523°
Altitude
870.037 km
Speed
7.429 km/s
True Right ascension
06h 43m 12s
True Declination
0° 00' 00"
Sunlit
Object was in full shadow at epoch
Visualization orbit readout
Latitude
Unknown
Longitude
Unknown
Altitude
Unknown
Speed
Unknown
Apparent Right ascension
Unknown
Apparent Declination
Unknown
Sunlit
N/A
Visualization observer readout
Local Sidereal Time
10:18:30
Azimuth
Unknown
Elevation
Unknown
Doppler factor
Unknown
Orbital elements
Apogee altitude
925.688 km
Perigee altitude
848.041 km
Semi-major axis
7,265.001 km
Eccentricity
0.00534
Inclination
99.7289°
RAAN
100.803°
Arg. of periapsis
55.0675°
True anomaly
305.04903°
Mean anomaly
305.5492°
Eccentric anomaly
305.29931°
Mean motion
3.50501 °/min
Orbital period
102.71 mins
BSTAR
0.0010519
Loading maneuver chart data...
Computing Atmospheric mass density...

Documentation

Showing up to 5 results
|